Regional Weather Roundup
Issued by NWS

Home | Current Version | Previous Version | Text Only | Print | Product List | Glossary On
Versions: 1 2 3 4 5 6 7 8 9 10 11 12 13 14 15 16 17 18 19 20 21 22 23 24 25 26 27 28 29 30 31 32 33 34 35 36 37 38 39 40 41 42 43 44 45 46 47 48 49 50
000
ASUS43 KMKX 180200
RWRWI

WISCONSIN REGIONAL WEATHER ROUNDUP
NATIONAL WEATHER SERVICE MILWAUKEE/SULLIVAN WI
800 PM CST WED DEC 17 2014

NOTE: "FAIR" INDICATES FEW OR NO CLOUDS BELOW 12,000 FEET WITH NO
SIGNIFICANT WEATHER AND/OR OBSTRUCTIONS TO VISIBILITY.

WIZ001-002-006>008-014>016-023>028-180300-
NORTHWEST WISCONSIN

CITY           SKY/WX    TMP DP  RH WIND       PRES   REMARKS
SUPERIOR ARPT  CLOUDY    20  17  87 CALM      30.32S
ASHLAND        CLOUDY    20  18  92 W3        30.30F
HAYWARD        CLOUDY    18  12  77 CALM      30.28R
SIREN          PTCLDY    11   9  92 CALM      30.30F
CUMBERLAND     PTCLDY    14   9  79 CALM      30.27F
RICE LAKE      CLOUDY    17  11  78 N6        30.30S WCI   8
CHETEK         CLOUDY    17  11  78 NW5       30.29S WCI  10
LADYSMITH      CLOUDY    20  15  81 NW6       30.28R WCI  12
EAU CLAIRE     NOT AVBL
MENOMONIE      CLEAR     17  11  79 CALM      30.30S
NEW RICHMOND   PTCLDY    13  10  90 CALM      30.30S
OSCEOLA        MOCLDY    12   9  87 CALM      30.33S
$$

WIZ003>005-009-010-017-018-180300-
NORTH CENTRAL WISCONSIN

CITY           SKY/WX    TMP DP  RH WIND       PRES   REMARKS
MANITOWISH WTR CLOUDY    21  19  90 N9        30.21S WCI  11
ARBOR VITAE    CLOUDY    22  19  87 N10       30.21R WCI  11
WOODRUFF       CLOUDY    22  19  87 N10       30.21R WCI  11
RHINELANDER    CLOUDY    21  17  84 N7        30.19F WCI  12
EAGLE RIVER    CLOUDY    21  18  86 N10       30.20R WCI  10
LAND O LAKES   CLOUDY    21  20  96 N13       30.20S WCI   9
PHILLIPS       CLOUDY    19  16  90 N5        30.22S WCI  12
TOMAHAWK       CLOUDY    21  18  88 CALM      30.21S
MEDFORD        CLOUDY    19  14  82 NW6       30.21F WCI  11
MERRILL        CLOUDY    22  18  85 N5        30.22R WCI  15
$$

WIZ029-030-035-036-043>047-180300-
CENTRAL WISCONSIN

CITY           SKY/WX    TMP DP  RH WIND       PRES   REMARKS
WAUSAU         CLOUDY    22  16  78 N8        30.21S WCI  12
MOSINEE        CLOUDY    21  18  86 N8        30.22F WCI  12
MARSHFIELD     CLOUDY    20  13  74 NW10      30.22F WCI   9
STEVENS POINT  CLOUDY    18  12  76 W3        30.23S
WAUPACA        CLOUDY    23  14  68 W6        30.24S WCI  16
WAUTOMA        MOCLDY    18  14  86 W6        30.26R WCI   9
WISC RAPIDS    CLOUDY    18  11  74 SW5       30.26R WCI  11
CAMP DOUGLAS   NOT AVBL
$$

WIZ011>013-019>022-031-037>040-048>050-180300-
NORTHEAST WISCONSIN

CITY           SKY/WX    TMP DP  RH WIND       PRES   REMARKS
ANTIGO         CLOUDY    21  19  91 N8        30.18S WCI  12
SHAWANO        CLOUDY    27  20  73 NW6       30.23R WCI  21
OCONTO         CLOUDY    27  20  77 NW5       30.20F WCI  21
STURGEON BAY   CLOUDY    27  19  74 NW13      30.20S WCI  16
GREEN BAY      CLOUDY    27  19  72 NW9       30.21F WCI  18
MANITOWOC      NOT AVBL
APPLETON       CLOUDY    21  16  79 W10       30.22S WCI  10
CLINTONVILLE   CLOUDY    27  18  69 W5        30.23S WCI  21
OSHKOSH        MOCLDY    21  13  71 NW8       30.23S WCI  11
$$

WIZ032>034-041-042-053>061-180300-
SOUTHWEST WISCONSIN

CITY           SKY/WX    TMP DP  RH WIND       PRES   REMARKS
LA CROSSE      CLOUDY    21  12  68 NW6       30.32S WCI  13
SPARTA         MOCLDY    18  13  79 CALM      30.30S
VIROQUA        CLOUDY    18  14  84 N7        30.26R WCI   8
BOSCOBEL       MOCLDY    20  13  74 CALM      30.31S
PRAIRIE DU CHI PTCLDY    21  14  75 N5        30.31R WCI  14
PLATTEVILLE    CLEAR     19  15  84 CALM      30.28S
$$

WIZ056-057-062-063-064-067-068-180300-
SOUTH CENTRAL WISCONSIN

CITY           SKY/WX    TMP DP  RH WIND       PRES   REMARKS
REEDSBURG      CLOUDY    18  12  77 NW6       30.27S WCI  10
BARABOO/DELLS  PTCLDY    18  13  79 W5        30.27R WCI  11
LONE ROCK      NOT AVBL
MINERAL POINT  CLOUDY    21  18  86 CALM      30.25S
MADISON        CLOUDY    21  14  74 NW8       30.27R WCI  11
MIDDLETON      CLOUDY    23  15  71 N10       30.27S WCI  12
WATERTOWN      PTCLDY    20  15  81 W3        30.26R
MONROE         CLOUDY    21  18  86 NW8       30.25S WCI  12
JANESVILLE     CLOUDY    25  16  68 W6        30.27R WCI  18
$$

WIZ051-052-058>065-066-070>072-180300-
SOUTHEAST WISCONSIN

CITY           SKY/WX    TMP DP  RH WIND       PRES   REMARKS
MILWAUKEE      CLEAR     23  13  65 W9        30.25R WCI  13
WAUKESHA       CLEAR     19  14  79 W9        30.25R WCI   9
MILWAUKEE/TIMM CLEAR     21  14  73 W8        30.25R WCI  12
RACINE         PTCLDY    22  14  71 W6        30.27R WCI  14
BURLINGTON     CLOUDY    21  15  76 NW12      30.26S WCI   9
KENOSHA        PTCLDY    22  15  75 NW8       30.26R WCI  12
FOND DU LAC    CLEAR     20  13  74 NW9       30.23S WCI   9
SHEBOYGAN      CLEAR     22  14  71 W9        30.21S WCI  12
WEST BEND      CLEAR     21  14  73 W9        30.22S WCI  11
JUNEAU         CLEAR     19  14  82 W5        30.25R WCI  12
$$

LSZ147-162-180300-
LAKE SUPERIOR

STATION/POSITION TIME  TEMP    WIND        PRES    WAVE
                       AIR SEA DIR/SP/G            HT/PER
                 (UTC) (F)     (DEG/KT/KT) (MB)    (FT/S)
DEVILS ISLAND    0100   26      50/  9/ 11 1027.6R
PORT WING        0140   20     160/  4/  5 1026.4F
SAXON HARBOR     0100   27      10/ 11/ 13 1025.7S
$$

LMZ867-665-643>646-180300-
LAKE MICHIGAN

STATION/POSITION TIME  TEMP    WIND        PRES    WAVE
                       AIR SEA DIR/SP/G            HT/PER
                 (UTC) (F)     (DEG/KT/KT) (MB)    (FT/S)
CHAMBERS ISLAND  0100   28     300/ 10/ 15 1022.0R
NORTHPORT PIER   0100   30     340/ 21/ 26 1021.3R
SISTER BAY       0013          350/ 24/ 28   N/A
ALGOMA LAKESHORE 0114          320/  9/ 13   N/A
KEWAUNEE LAKESHO 0100   26     300/  7/ 11 1021.5R
SHEBOYGAN LAKESH 0100   24 35  290/ 13/ 16 1024.2F
PORT WASHINGTON  0140   23     290/  7/ 13 1024.4R
MILWAUKEE LAKESH 0100   24     300/  9/ 12   N/A
KENOSHA   LAKESH 0100   25     320/ 10/ 13 1024.0S
$$

TC  - TEMPERATURE IN CELSIUS
VSB - VISIBILITY IN STATUTE MILES
WCI - WIND CHILL INDEX
HX  - HEAT INDEX



USA.gov is the U.S. government's official web portal to all federal, state and local government web resources and services.